Regional Weather Roundup
Issued by NWS

Home | Current Version | Previous Version | Graphics & Text | Print | Product List | Glossary On
Versions: 1 2 3 4 5 6 7 8 9 10 11 12 13 14 15 16 17 18 19 20 21 22 23 24 25 26 27 28 29 30 31 32 33 34 35 36 37 38 39 40 41 42 43 44 45 46 47 48 49 50
000
ASUS43 KMPX 221601
RWRMN
WEATHER ROUNDUP FOR MINNESOTA
NATIONAL WEATHER SERVICE TWIN CITIES/CHANHASSEN MN
1100 AM CDT TUE JUL 22 2014


NOTE: "FAIR" INDICATES FEW OR NO CLOUDS BELOW 12,000 FEET WITH NO
SIGNIFICANT WEATHER AND/OR OBSTRUCTIONS TO VISIBILITY. N/A MEANS
CURRENT SKY AND/OR WEATHER CONDITIONS ARE NOT AVAILABLE.

MNZ060>063-068>070-221700-
   Twin Cities Metro

CITY           SKY/WX    TMP DP  RH WIND       PRES   REMARKS
TWIN CITIES    PTSUNNY   80  65  59 N16       29.97R
ST PAUL        PTSUNNY   77  65  66 N14       29.97R
CRYSTAL        CLOUDY    76  63  64 NW17      29.97R
LAKEVILLE      MOSUNNY   77  66  69 NW15      29.96S
EDEN PRAIRIE   PTSUNNY   77  65  66 N15G24    29.97R
SOUTH ST PAUL  MOSUNNY   79  64  60 N12       29.97R
LAKE ELMO      CLOUDY    75  66  73 NW9       29.98R
$$
MNZ001>005-007-008-013>017-022>024-027-028-221700-
   Northwest Minnesota

CITY           SKY/WX    TMP DP  RH WIND       PRES   REMARKS
BEMIDJI        SUNNY     70  55  59 NW15      30.05R
HALLOCK        SUNNY     72  57  60 N10G17    30.10R
ROSEAU         SUNNY     72  57  60 N14       30.06R
THIEF RVR FALL SUNNY     70  54  56 NW15      30.10R
FOSSTON        SUNNY     68  57  68 NW16      30.09R
DETROIT LAKES  SUNNY     70  59  68 N13G21    30.11R
MOORHEAD       SUNNY     72  63  73 N10       30.11R
PARK RAPIDS    SUNNY     71  58  63 NW15      30.05R
$$
MNZ006-009>011-018-025>026-221700-
   North Central Minnesota

CITY           SKY/WX    TMP DP  RH WIND       PRES   REMARKS
BAUDETTE       SUNNY     69  57  65 NW14G20   30.03R
FLAG ISLAND    SUNNY     66  55  68 NW14      30.02R
INTL FALLS     MOSUNNY   70  60  70 NW14      29.97R
WASKISH        SUNNY     70  61  73 NW9G16    30.03R
BIG FORK       SUNNY     72  61  68 NW8G18    29.99R
LONGVILLE      MOSUNNY   70  63  78 NW8G18    30.01R
GRAND RAPIDS   PTSUNNY   70  61  73 NW13G24   29.99R
CRANE LAKE     PTSUNNY   66  63  88 NW13G20   29.94R
ORR            SUNNY     70  59  68 NW14      29.93R
COOK           MOSUNNY   70  61  73 NW13G22   29.95R
$$
MNZ012-019>021-037-221700-
   Northeast Minnesota

CITY           SKY/WX    TMP DP  RH WIND       PRES   REMARKS
DULUTH         CLOUDY    71  62  73 NW15G24   29.92R
ELY            CLOUDY    66  63  88 NW9G16    29.90R
HIBBING        PTSUNNY   71  61  70 NW20G29   29.96R
DULUTH HARBOR  CLOUDY    73  64  73 W26       29.90R
TWO HARBORS    CLOUDY    70  63  78 NW9G20    29.86R
SILVER BAY     MOSUNNY   70  66  88 NW9G21    29.83R
GRAND MARAIS     N/A     75  65  70 NW8G25    29.74R
G MARAIS ARPRT PTSUNNY   66  61  82 NW12G24   29.82R
$$
MNZ029>031-032-039>041-046>048-054>057-064-221700-
   West Central Minnesota

CITY           SKY/WX    TMP DP  RH WIND       PRES   REMARKS
FERGUS FALLS   SUNNY     72  57  60 N14       30.09R
WHEATON        SUNNY     72  61  68 NW15      30.11R
MORRIS         SUNNY     73  63  68 NW20G26   30.07R
ALEXANDRIA     MOSUNNY   72  62  71 N13G26    30.07R
ELBOW LAKE     FAIR      70  61  73 N14G24    30.08R
WADENA         SUNNY     70  59  68 NW13G22   30.06R
GLENWOOD       SUNNY     73  63  68 NW14G23   30.06R
APPLETON       MOSUNNY   75  61  60 N20G25    30.06R
BENSON         MOSUNNY   73  63  68 N17G26    30.06R
MADISON        MOSUNNY   75  63  64 N15G22    30.07R
WILLMAR        FAIR      73  61  64 NW18      30.04R
$$
MNZ033>034-036-042>043-049>051-058-059-221700-
   Central Minnesota

CITY           SKY/WX    TMP DP  RH WIND       PRES   REMARKS
ST CLOUD       CLOUDY    75  63  66 NW16G25   29.99R
SAUK CENTRE    FAIR      72  61  69 NW17      30.04R
PAYNESVILLE    RAIN      71  62  71 W12G22    30.02S
AITKIN         PTSUNNY   73  63  68 NW8       29.99R
PINE RIVER     MOSUNNY   72  61  68 NW14G21   30.05R
BRAINERD       MOSUNNY   72  60  66 N17       30.01F
STAPLES        MOSUNNY   72  59  64 N15G22    30.04S
LONG PRAIRIE   PTSUNNY   72  61  68 NW18G25   30.04R
LITTLE FALLS   PTSUNNY   72  59  64 NW16G22   30.01S
LITCHFIELD     CLOUDY    73  66  78 NW15      30.02R
BUFFALO        PTSUNNY   74  62  65 NW10      30.01R
MAPLE LAKE     CLOUDY    75  65  70 NW13G20   30.01R
$$
MNZ037-044-045-052-053-221700-
   East Central Minnesota

CITY           SKY/WX    TMP DP  RH WIND       PRES   REMARKS
PRINCETON      PTSUNNY   73  64  73 NW10G18   29.98R
MORA           PTSUNNY   70  61  73 NW16G22   29.98S
CAMBRIDGE      PTSUNNY   75  63  64 NW13G18   29.95R
RUSH CITY      CLOUDY    72  63  73 NW13G22   29.95S
MOOSE LAKE     CLOUDY    72  61  68 NW12G23   29.94R
HINCKLEY       CLOUDY    70  63  78 NW13G21   29.96S
CLOQUET        CLOUDY    70  63  78 NW14G21   29.94S
MCGREGOR       CLOUDY    70  63  78 NW13G21   29.99R
$$
MNZ071>073-080-081-089-090-097-098-221700-
   Southwest Minnesota

CITY           SKY/WX    TMP DP  RH WIND       PRES   REMARKS
MONTEVIDEO     MOSUNNY   73  64  73 N18G25    30.06R
GRANITE FALLS  CLOUDY    72  63  72 NW15G21   30.08R
CANBY          MOSUNNY   73  61  64 N13G21    30.10R
MARSHALL       CLOUDY    72  63  73 N18G24    30.05R
REDWOOD FALLS  CLOUDY    73  64  73 NW13G21   30.04R
OLIVIA         CLOUDY    73  63  68 N13G22    30.03R
PIPESTONE      SUNNY     73  63  68 N13       30.08S
WINDOM         MOSUNNY   75  64  69 N17G24    30.06R
WORTHINGTON    PTSUNNY   73  64  73 N17       30.08R
JACKSON        SUNNY     75  64  69 N12G22    30.05R
TRACY          PTSUNNY   73  65  76 N17G24    30.06S
SLAYTON        CLOUDY    73  64  73 N15G21    30.08R
$$
MNZ065>067-074>077-082>085-091>093-221700-
   South Central Minnesota

CITY           SKY/WX    TMP DP  RH WIND       PRES   REMARKS
MANKATO        MOSUNNY   75  64  69 N15G23    30.00R
NEW ULM        SUNNY     75  66  73 NW17G23   30.02R
ST JAMES       SUNNY     75  64  69 NW16G22   30.02R
FAIRMONT       SUNNY     77  63  61 N16       30.00R
GLENCOE        PTSUNNY   75  63  64 N15       30.00R
FARIBAULT      MOSUNNY   81  63  54 NW9       29.98R
OWATONNA       MOSUNNY   79  64  61 NW16      29.97F
WASECA         MOSUNNY   77  63  61 NW13G21   30.00R
ALBERT LEA     MOSUNNY   79  66  65 N12       29.96S
$$
MNZ078>079-086>088-094>096-221700-
   Southeast Minnesota

CITY           SKY/WX    TMP DP  RH WIND       PRES   REMARKS
ROCHESTER      MOSUNNY   79  67  66 NW15G22   29.97R
RED WING       MOSUNNY   82  64  54 NW13      29.94R
STANTON        PTSUNNY   79  65  63 NW12      29.96S
DODGE CENTER   MOSUNNY   77  66  69 NW13      29.96R
WINONA         MOSUNNY   86  70  58 NW12      29.89R HX  90
AUSTIN         MOSUNNY   81  66  61 NW14G20   29.95R
PRESTON        SUNNY     82  73  74 N9        29.93S
$$
ABBREVIATIONS USED IN REMARKS
   TC - TEMPERATURES IN CELSIUS
  WCI - WIND CHILL INDEX
   HX - HEAT INDEX
  VSB - VISIBILITY
$$



USA.gov is the U.S. government's official web portal to all federal, state and local government web resources and services.